FALCON 9 DEB (46386 NORAD) Tracking and Keplerian Element Data

This shows tracking and keplerian element data for the satellite.

Feedback or suggestion? Click here.




ElementValue
Catalog46386
NameFALCON 9 DEB
Epoch Orbit467
Epoch Day272.56349508
Epoch Year2020
RAAN300.3493
Inclination52.9879
Eccentricity0.0018134
Argument of Perigee134.8821
Mean Anonmoly225.3699
Mean Motion16.37306996
Decay Rate0.05920585
L11 46386U 20062BP 20272.56349508 .05920585 12145-4 54941-3 0 9997
L22 46386 52.9879 300.3493 0018134 134.8821 225.3699 16.37306996 4678



Live tracking and technical data element details for FALCON 9 DEB (NORAD 46386). FALCON 9 DEB can be tracked NOW for your location showing map with azimuth and elevation plus other details from your city location.







IsCatalogInMostPopularTable: catalog: 46386, numindb: 156
Update: records affected: 1



GetName: 46386 FALCON 9 DEB

Hit Count: updated at: Sun, 11 Jun 2023 00:14:20 GMT